TimeMST,TemperatureF,Dew PointF,Humidity,Sea Level PressureIn,VisibilityMPH,Wind Direction,Wind SpeedMPH,Gust SpeedMPH,PrecipitationIn,Events,Conditions,WindDirDegrees,DateUTC
12:53 AM,30.9,26.1,82,30.08,10.0,Calm,Calm,-,N/A,,Clear,0,2012-11-07 07:53:00
1:53 AM,28.0,24.1,85,30.07,10.0,Calm,Calm,-,N/A,,Clear,0,2012-11-07 08:53:00
2:53 AM,28.9,24.1,82,30.04,10.0,SE,3.5,-,N/A,,Clear,130,2012-11-07 09:53:00
3:53 AM,28.0,24.1,85,30.02,10.0,Calm,Calm,-,N/A,,Clear,0,2012-11-07 10:53:00
5:53 AM,26.1,23.0,88,30.05,10.0,Calm,Calm,-,N/A,,Clear,0,2012-11-07 12:53:00
6:53 AM,24.1,19.9,84,30.07,10.0,Calm,Calm,-,N/A,,Clear,0,2012-11-07 13:53:00
7:53 AM,32.0,28.0,85,30.04,10.0,SSE,3.5,-,N/A,,Clear,150,2012-11-07 14:53:00
8:53 AM,53.1,32.0,45,29.95,10.0,Calm,Calm,-,N/A,,Clear,0,2012-11-07 15:53:00
9:53 AM,64.9,26.1,23,29.91,10.0,WNW,6.9,-,N/A,,Clear,290,2012-11-07 16:53:00
10:53 AM,70.0,19.0,14,29.87,10.0,West,26.5,33.4,N/A,,Clear,280,2012-11-07 17:53:00
11:53 AM,71.1,17.1,13,29.84,10.0,West,23.0,28.8,N/A,,Clear,280,2012-11-07 18:53:00
12:53 PM,72.0,17.1,12,29.82,10.0,West,18.4,29.9,N/A,,Clear,270,2012-11-07 19:53:00
1:53 PM,72.0,18.0,13,29.81,10.0,West,21.9,28.8,N/A,,Clear,280,2012-11-07 20:53:00
2:53 PM,71.1,19.0,14,29.80,10.0,West,18.4,-,N/A,,Clear,280,2012-11-07 21:53:00
3:53 PM,69.1,19.0,15,29.81,10.0,West,20.7,-,N/A,,Clear,270,2012-11-07 22:53:00
4:53 PM,60.1,19.9,21,29.85,10.0,WSW,6.9,-,N/A,,Clear,250,2012-11-07 23:53:00
5:53 PM,57.9,21.0,24,29.86,10.0,SW,6.9,-,N/A,,Clear,220,2012-11-08 00:53:00
6:53 PM,51.1,21.0,31,29.89,10.0,Calm,Calm,-,N/A,,Clear,0,2012-11-08 01:53:00
7:53 PM,55.9,21.9,27,29.85,10.0,WNW,3.5,-,N/A,,Clear,290,2012-11-08 02:53:00
8:53 PM,48.9,21.9,35,29.81,10.0,North,4.6,-,N/A,,Clear,360,2012-11-08 03:53:00
9:53 PM,48.9,23.0,36,29.77,10.0,NW,3.5,-,N/A,,Clear,310,2012-11-08 04:53:00
10:53 PM,46.0,21.9,39,29.77,10.0,WNW,5.8,-,N/A,,Clear,300,2012-11-08 05:53:00